Regional Weather Roundup
Issued by NWS

Home | Current Version | Previous Version | Graphics & Text | Print | Product List | Glossary On
Versions: 1 2 3 4 5 6 7 8 9 10 11 12 13 14 15 16 17 18 19 20 21 22 23 24 25 26 27 28 29 30 31 32 33 34 35 36 37 38 39 40 41 42 43 44 45 46 47 48 49 50
000
ASUS45 KBOU 310407
RWRCO

WEATHER ROUNDUP FOR COLORADO
NATIONAL WEATHER SERVICE DENVER/BOULDER CO
1000 PM MDT SUN AUG 30 2015

NOTE: "FAIR" INDICATES FEW OR NO CLOUDS BELOW 12000 FEET WITH NO
SIGNIFICANT WEATHER AND/OR OBSTRUCTIONS TO VISIBILITY.

COZ001>005-013-030-031-310500-
...NORTHWEST COLORADO...

CITY           SKY/WX    TMP DP  RH WIND       PRES   REMARKS
CRAIG          CLOUDY    62  52  69 CALM      30.17R
HAYDEN         NOT AVBL
MEEKER         LGT RAIN  60  53  77 S10G28    30.22R
MOUNT WERNER   NOT AVBL
STEAMBOAT SPGS CLOUDY    59  51  74 E6        30.20F
WALDEN         CLOUDY    55  43  62 S7        30.32R
$$

COZ006>008-011-310500-
...WEST CENTRAL VALLEYS...

CITY           SKY/WX    TMP DP  RH WIND       PRES   REMARKS
GRAND JUNCTION CLOUDY    62  59  90 SW13      30.15R
MONTROSE       CLOUDY    64  57  78 S3        30.21R
EAGLE          CLOUDY    68  46  45 CALM      30.20R
RIFLE          RAIN      61  56  83 W14       30.23R
DELTA          CLOUDY    71  56  58 CALM      30.15R
NUCLA          CLOUDY    72  46  40 E6        30.21S
$$

COZ017>023-064>068-310500-
...SOUTHWEST COLORADO...

CITY           SKY/WX    TMP DP  RH WIND       PRES   REMARKS
DURANGO        CLOUDY    68  48  48 W13       30.23R
CORTEZ         CLEAR     65  53  65 NE8       30.18S
PAGOSA SPRINGS CLOUDY    64  45  49 CALM      30.27S
TELLURIDE      CLOUDY    61  46  57 CALM      30.43R
WOLF CREEK PAS PTCLDY    46  39  76 SW13      30.61S
$$

COZ009-010-012-014-032>034-037-058>063-310500-
...CENTRAL COLORADO...

CITY           SKY/WX    TMP DP  RH WIND       PRES   REMARKS
ASPEN          MOCLDY    59  46  62 SW5       30.26R
BUENA VISTA    PTCLDY    67  37  32 NW8       30.26R
COPPER MTN     CLOUDY    54  34  47 SW3       30.59S
BERTHOUD PASS  FAIR      43  32  65 N7        30.63S
COTTONWOOD PAS MOCLDY    64  32  29 SW12      30.41S
GUNNISON       MOCLDY    64  45  48 W10G16    30.33R
KREMMLING      CLOUDY    64  41  42 N8        30.26F
LEADVILLE      MOCLDY    52  36  54 N7        30.41S
MONARCH PASS   PTCLDY    50  36  57 W16       30.68S
SALIDA         PTCLDY    69  38  32 SW8       30.29S
SUNLIGHT       CLOUDY    50  46  87 CALM      30.54R
WILKERSON PASS PTCLDY    54  34  47 W10G17    30.53S
$$

COZ069>075-310500-
...SAN LUIS VALLEY/SANGRE DE CRISTO MOUNTAINS...

CITY           SKY/WX    TMP DP  RH WIND       PRES   REMARKS
ALAMOSA        PTCLDY    59  45  59 SW5       30.22S
LA VETA PASS   PTCLDY    59  36  41 MISG      30.42S
SAGUACHE       MOCLDY    63  41  45 NW9       30.26S
$$

COZ035-036-038>040-310500-
...NORTHERN COLORADO FRONT RANGE...

CITY           SKY/WX    TMP DP  RH WIND       PRES   REMARKS
DENVER INTL AP MOCLDY    80  39  23 S15       30.00R
DMNS CITY PARK   N/A     76  44  31 E7        29.99S
AURORA         MOCLDY    80  41  25 S9        30.02R
FRONT RANGE AP NOT AVBL
ERIE MUNI ARPT CLOUDY    81  37  21 W3        29.98S
BOULDER MUN AP CLOUDY    81  41  24 W14       29.98F
CENTENNIAL     MOCLDY    77  40  26 SE16      30.03R
BROOMFIELD     MOCLDY    81  39  22 W12       30.02S
FORT COLLINS   CLOUDY    75  46  35 W8        30.00R
LONGMONT       CLOUDY    84  40  21 W8        29.99S
$$

COZ041-046-047-076>085-087-088-310500-
...PIKES PEAK/PALMER DIVIDE AND SOUTHERN FOOTHILLS...

CITY           SKY/WX    TMP DP  RH WIND       PRES   REMARKS
COLO. SPRINGS  PTCLDY    72  42  34 CALM      30.11R
A. F. ACADEMY  PTCLDY    71  40  32 E7        30.13R
ELLICOTT       NOT AVBL
FALCON         PTCLDY    65  45  47 MISG      30.17S
FORT CARSON    PTCLDY    73  44  35 CALM      30.06S
LIMON          CLEAR     68  49  50 SE10      30.05R
MONUMENT HILL  PTCLDY    66  41  39 S12       30.16S
TRINIDAD       CLEAR     78  51  38 S18G29    30.06R
$$

COZ042>045-048>051-090-091-310500-
...NORTHEAST COLORADO...

CITY           SKY/WX    TMP DP  RH WIND       PRES   REMARKS
GREELEY ARPT   MOCLDY    79  46  31 CALM      29.95S
AKRON          CLEAR     75  48  38 S15       29.98R
BURLINGTON     CLEAR     69  43  38 S15       30.01R
WRAY           PTCLDY    77  39  25 S17G28    29.94S
STERLING       CLEAR     79  52  38 S16G25    29.90S
HOLYOKE        CLEAR     73  43  33 S14       29.93S
FORT MORGAN    CLEAR     73  45  35 SE9       29.96R
$$

COZ086-089-092>099-310500-
...SOUTHEAST COLORADO...

CITY           SKY/WX    TMP DP  RH WIND       PRES   REMARKS
PUEBLO         CLEAR     77  48  35 E7        29.95R
LA JUNTA       CLEAR     78  48  34 SE8       29.96R
LAMAR          CLEAR     78  49  35 S14       29.93S HAZE
SPRINGFIELD    NOT AVBL
$$



USA.gov is the U.S. government's official web portal to all federal, state and local government web resources and services.